Marysville, CA

2:40 AM PDT on October 18, 2017 (GMT -0700)
Yuba County

Weather History for KMYV - November, 2012

Change the Weather History Date:

Monday, November 5, 2012

  Actual Average Record
Temperature  
Mean Temperature 63 °F -  
Max Temperature 78 °F 71 °F 82 °F (1976)
Min Temperature 48 °F 47 °F 34 °F (2011)
Degree Days  
Heating Degree Days 2    
Growing Degree Days 13 (Base 50)    
Moisture  
Dew Point 53 °F    
Average Humidity 82    
Maximum Humidity 100    
Minimum Humidity 43    
Precipitation  
Precipitation 0.01 in - - ()
Sea Level Pressure  
Sea Level Pressure 30.13 in    
Wind  
Wind Speed 1 mph (East)    
Max Wind Speed 5 mph    
Max Gust Speed -    
Visibility 8 miles    
Events      
Averages and records for this station are not official NWS values.
T = Trace of Precipitation, MM = Missing Value Source: NWS Daily Summary

Daily Weather History Graph

Daily Weather History Graph

Search for Another Location

Airport or City:

Trip Planner

Search our weather history database for the weather conditions in past years. The results will help you decide how hot, cold, wet, or windy it might be!

Date:

Astronomy

Nov. 05, 2012 Rise Set
Actual Time 6:38 AM PST 5:00 PM PST
Civil Twilight 6:10 AM PST 5:28 PM PST
Nautical Twilight 5:39 AM PST 6:00 PM PST
Astronomical Twilight 5:07 AM PST 6:31 PM PST
Moon 10:43 PM PST (11/5) 12:01 PM PST (11/5)
Length of Visible Light 11h 17m
Length of Day
10h 21m
Waning Gibbous, 62% of the Moon is Illuminated
Nov 5
Waning Gibbous
Nov 6
Last Quarter
Nov 13
New
Nov 20
First Quarter
Nov 28
Full

Hourly Weather History & Observations

Time (PST) Temp. Dew Point Humidity Pressure Visibility Wind Dir Wind Speed Gust Speed Precip Events Conditions
12:53 AM 52.0 °F 51.1 °F 97% 30.17 in 4.0 mi Calm Calm - 0.01 in   Clear
1:53 AM 51.1 °F 50.0 °F 96% 30.17 in 4.0 mi Calm Calm - N/A   Clear
2:11 AM 51.8 °F 50.0 °F 94% 30.16 in 1.8 mi Calm Calm - N/A   Clear
2:20 AM 51.8 °F 51.8 °F 100% 30.16 in 3.0 mi SE 3.5 mph - N/A   Clear
2:53 AM 48.9 °F 48.0 °F 97% 30.17 in 9.0 mi Calm Calm - N/A   Clear
3:53 AM 52.0 °F 51.1 °F 97% 30.17 in 9.0 mi ENE 3.5 mph - N/A   Clear
4:53 AM 51.1 °F 50.0 °F 96% 30.17 in 10.0 mi ESE 3.5 mph - N/A   Clear
5:18 AM 48.2 °F 46.4 °F 93% 30.16 in 1.8 mi NNW 4.6 mph - N/A   Clear
5:28 AM 48.2 °F 48.2 °F 100% 30.16 in 3.0 mi NNW 3.5 mph - N/A   Clear
5:53 AM 50.0 °F 48.9 °F 96% 30.18 in 8.0 mi Calm Calm - N/A   Clear
6:53 AM 48.9 °F 48.0 °F 97% 30.19 in 10.0 mi Calm Calm - N/A   Clear
7:53 AM 55.9 °F 53.1 °F 90% 30.20 in 10.0 mi Calm Calm - N/A   Clear
8:53 AM 61.0 °F 55.0 °F 81% 30.19 in 10.0 mi Calm Calm - N/A   Clear
9:53 AM 66.0 °F 55.0 °F 68% 30.19 in 10.0 mi Calm Calm - N/A   Clear
10:53 AM 70.0 °F 55.9 °F 61% 30.17 in 10.0 mi Calm Calm - N/A   Clear
11:53 AM 73.0 °F 55.9 °F 55% 30.14 in 10.0 mi Calm Calm - N/A   Clear
12:53 PM 75.0 °F 57.0 °F 53% 30.12 in 10.0 mi West 4.6 mph - N/A   Clear
1:53 PM 77.0 °F 54.0 °F 45% 30.09 in 10.0 mi Calm Calm - N/A   Clear
2:53 PM 78.1 °F 55.0 °F 45% 30.08 in 10.0 mi Calm Calm - N/A   Clear
3:53 PM 78.1 °F 54.0 °F 43% 30.07 in 10.0 mi Calm Calm - N/A   Clear
4:53 PM 72.0 °F 55.9 °F 57% 30.06 in 10.0 mi South 3.5 mph - N/A   Clear
5:53 PM 63.0 °F 57.0 °F 81% 30.07 in 7.0 mi Calm Calm - N/A   Clear
6:53 PM 61.0 °F 55.9 °F 83% 30.07 in 10.0 mi Calm Calm - N/A   Clear
7:53 PM 60.1 °F 55.9 °F 86% 30.07 in 10.0 mi Calm Calm - N/A   Clear
8:53 PM 57.9 °F 57.0 °F 97% 30.08 in 10.0 mi Calm Calm - N/A   Clear
9:53 PM 57.0 °F 55.0 °F 93% 30.08 in 10.0 mi Calm Calm - N/A   Clear
10:53 PM 57.0 °F 55.0 °F 93% 30.08 in 10.0 mi Calm Calm - N/A   Clear
11:53 PM 54.0 °F 54.0 °F 100% 30.08 in 9.0 mi Calm Calm - N/A   Clear